owner,sensor,date,latitude,longitude,vertical_datum,sea_water_temperature,qcFlag
BP,ioos:station:wmo:42369:3,2021-12-01T00:00:00Z,27.2135,-90.2783,454.3,68.6,11144222
BP,ioos:station:wmo:42369:3,2021-12-01T00:20:00Z,27.2135,-90.2783,454.2,68.7,11144222
BP,ioos:station:wmo:42369:3,2021-12-01T00:40:00Z,27.2135,-90.2781,454.6,68.7,11144222
BP,ioos:station:wmo:42369:3,2021-12-01T01:00:00Z,27.2136,-90.2783,455.0,68.7,11144222
BP,ioos:station:wmo:42369:3,2021-12-01T01:20:00Z,27.2137,-90.2784,454.8,68.7,11144222
BP,ioos:station:wmo:42369:3,2021-12-01T01:40:00Z,27.2138,-90.2787,456.1,68.7,11144222
BP,ioos:station:wmo:42369:3,2021-12-01T02:00:00Z,27.2139,-90.2788,456.7,68.7,11144222
BP,ioos:station:wmo:42369:3,2021-12-01T02:20:00Z,27.2140,-90.2788,457.1,68.6,11144222
BP,ioos:station:wmo:42369:3,2021-12-01T02:40:00Z,27.2140,-90.2788,457.0,68.5,11144222
BP,ioos:station:wmo:42369:3,2021-12-01T03:00:00Z,27.2140,-90.2788,458.5,68.6,11144222
BP,ioos:station:wmo:42369:3,2021-12-01T03:20:00Z,27.2141,-90.2788,459.9,68.5,11144222
BP,ioos:station:wmo:42369:3,2021-12-01T03:40:00Z,27.2142,-90.2789,459.8,68.6,11144222
BP,ioos:station:wmo:42369:3,2021-12-01T04:00:00Z,27.2142,-90.2790,460.6,68.6,11144222
BP,ioos:station:wmo:42369:3,2021-12-01T04:20:00Z,27.2143,-90.2791,460.6,68.5,11144222
BP,ioos:station:wmo:42369:3,2021-12-01T04:40:00Z,27.2143,-90.2791,462.2,68.6,11144222
BP,ioos:station:wmo:42369:3,2021-12-01T05:00:00Z,27.2144,-90.2791,462.4,68.6,11144222
BP,ioos:station:wmo:42369:3,2021-12-01T05:20:00Z,27.2143,-90.2791,461.8,68.6,11144222
BP,ioos:station:wmo:42369:3,2021-12-01T05:40:00Z,27.2143,-90.2790,462.4,68.5,11144222
BP,ioos:station:wmo:42369:3,2021-12-01T06:00:00Z,27.2144,-90.2789,464.1,68.5,11144222
BP,ioos:station:wmo:42369:3,2021-12-01T06:20:00Z,27.2143,-90.2787,464.4,68.6,11144222
BP,ioos:station:wmo:42369:3,2021-12-01T06:40:00Z,27.2143,-90.2787,464.9,68.5,11144222
BP,ioos:station:wmo:42369:3,2021-12-01T07:00:00Z,27.2142,-90.2783,465.2,68.6,11144222
BP,ioos:station:wmo:42369:3,2021-12-01T07:20:00Z,27.2141,-90.2780,464.7,68.8,11144222
BP,ioos:station:wmo:42369:3,2021-12-01T07:40:00Z,27.2139,-90.2776,463.7,68.8,11144222
BP,ioos:station:wmo:42369:3,2021-12-01T08:00:00Z,27.2139,-90.2777,462.9,68.8,11144222
BP,ioos:station:wmo:42369:3,2021-12-01T08:20:00Z,27.2138,-90.2776,462.4,68.8,11144222
BP,ioos:station:wmo:42369:3,2021-12-01T08:40:00Z,27.2138,-90.2775,462.7,68.8,11144222
BP,ioos:station:wmo:42369:3,2021-12-01T09:00:00Z,27.2139,-90.2775,463.3,68.8,11144222
BP,ioos:station:wmo:42369:3,2021-12-01T09:20:00Z,27.2139,-90.2776,463.9,68.8,11144222
BP,ioos:station:wmo:42369:3,2021-12-01T09:40:00Z,27.2140,-90.2777,464.9,68.8,11144222
BP,ioos:station:wmo:42369:3,2021-12-01T10:00:00Z,27.2140,-90.2777,464.8,68.8,11144222
BP,ioos:station:wmo:42369:3,2021-12-01T10:20:00Z,27.2142,-90.2779,466.8,68.8,11144222
BP,ioos:station:wmo:42369:3,2021-12-01T10:40:00Z,27.2143,-90.2780,469.1,68.8,11144222
BP,ioos:station:wmo:42369:3,2021-12-01T11:00:00Z,27.2143,-90.2780,469.5,68.8,11144222
BP,ioos:station:wmo:42369:3,2021-12-01T11:20:00Z,27.2143,-90.2780,470.0,68.9,11144222
BP,ioos:station:wmo:42369:3,2021-12-01T11:40:00Z,27.2143,-90.2778,471.1,68.9,11144222
BP,ioos:station:wmo:42369:3,2021-12-01T12:00:00Z,27.2142,-90.2777,467.6,68.9,11144222
BP,ioos:station:wmo:42369:3,2021-12-01T12:20:00Z,27.2138,-90.2774,464.5,68.9,11144222
BP,ioos:station:wmo:42369:3,2021-12-01T13:00:00Z,27.2137,-90.2773,462.5,68.9,11144222
BP,ioos:station:wmo:42369:3,2021-12-01T13:20:00Z,27.2137,-90.2773,462.8,68.9,11144222
BP,ioos:station:wmo:42369:3,2021-12-01T13:40:00Z,27.2137,-90.2772,464.0,68.9,11144222
BP,ioos:station:wmo:42369:3,2021-12-01T14:00:00Z,27.2136,-90.2771,463.4,69.0,11144222
BP,ioos:station:wmo:42369:3,2021-12-01T14:20:00Z,27.2136,-90.2771,461.8,69.0,11144222
BP,ioos:station:wmo:42369:3,2021-12-01T14:40:00Z,27.2136,-90.2771,460.8,69.0,11144222
BP,ioos:station:wmo:42369:3,2021-12-01T15:00:00Z,27.2135,-90.2773,459.5,69.0,11144222
BP,ioos:station:wmo:42369:3,2021-12-01T15:20:00Z,27.2135,-90.2774,459.2,68.9,11144222
BP,ioos:station:wmo:42369:3,2021-12-01T15:40:00Z,27.2135,-90.2774,457.7,68.9,11144222
BP,ioos:station:wmo:42369:3,2021-12-01T16:00:00Z,27.2135,-90.2776,456.9,68.9,11144222
BP,ioos:station:wmo:42369:3,2021-12-01T16:20:00Z,27.2135,-90.2776,458.4,68.8,11144222
BP,ioos:station:wmo:42369:3,2021-12-01T16:40:00Z,27.2134,-90.2777,456.9,68.8,11144222
BP,ioos:station:wmo:42369:3,2021-12-01T17:00:00Z,27.2135,-90.2778,456.7,68.9,11144222
BP,ioos:station:wmo:42369:3,2021-12-01T17:20:00Z,27.2135,-90.2779,455.4,69.0,11144222
BP,ioos:station:wmo:42369:3,2021-12-01T17:40:00Z,27.2135,-90.2779,455.8,69.1,11144222
BP,ioos:station:wmo:42369:3,2021-12-01T18:00:00Z,27.2135,-90.2779,455.1,69.0,11144222
BP,ioos:station:wmo:42369:3,2021-12-01T18:20:00Z,27.2135,-90.2781,454.1,69.1,11144222
BP,ioos:station:wmo:42369:3,2021-12-01T18:40:00Z,27.2135,-90.2783,454.7,69.1,11144222
BP,ioos:station:wmo:42369:3,2021-12-01T19:00:00Z,27.2135,-90.2784,453.4,69.1,11144222
BP,ioos:station:wmo:42369:3,2021-12-01T19:20:00Z,27.2135,-90.2785,453.0,69.1,11144222
BP,ioos:station:wmo:42369:3,2021-12-01T19:40:00Z,27.2135,-90.2785,452.6,69.0,11144222
BP,ioos:station:wmo:42369:3,2021-12-01T20:00:00Z,27.2135,-90.2788,452.6,69.0,11144222
BP,ioos:station:wmo:42369:3,2021-12-01T20:40:00Z,27.2135,-90.2789,452.1,69.1,11144222
BP,ioos:station:wmo:42369:3,2021-12-01T21:00:00Z,27.2135,-90.2791,451.4,69.1,11144222
BP,ioos:station:wmo:42369:3,2021-12-01T21:20:00Z,27.2135,-90.2791,451.8,69.1,11144222
BP,ioos:station:wmo:42369:3,2021-12-01T21:40:00Z,27.2135,-90.2790,452.1,69.1,11144222
BP,ioos:station:wmo:42369:3,2021-12-01T22:00:00Z,27.2135,-90.2790,451.0,69.1,11144222
BP,ioos:station:wmo:42369:3,2021-12-01T22:20:00Z,27.2135,-90.2790,451.3,69.1,11144222
BP,ioos:station:wmo:42369:3,2021-12-01T22:40:00Z,27.2135,-90.2790,451.2,69.1,11144222
BP,ioos:station:wmo:42369:3,2021-12-01T23:00:00Z,27.2135,-90.2790,450.9,69.2,11144222
BP,ioos:station:wmo:42369:3,2021-12-01T23:20:00Z,27.2134,-90.2791,450.5,69.2,11144222
BP,ioos:station:wmo:42369:3,2021-12-01T23:40:00Z,27.2134,-90.2792,451.0,69.2,11144222
BP,ioos:station:wmo:42369:3,2021-12-02T00:00:00Z,27.2135,-90.2792,450.9,69.2,11144222
BP,ioos:station:wmo:42369:3,2021-12-02T00:20:00Z,27.2135,-90.2793,451.3,69.2,11144222
BP,ioos:station:wmo:42369:3,2021-12-02T00:40:00Z,27.2135,-90.2793,451.2,69.2,11144222
BP,ioos:station:wmo:42369:3,2021-12-02T01:00:00Z,27.2136,-90.2793,451.5,69.3,11144222
BP,ioos:station:wmo:42369:3,2021-12-02T01:20:00Z,27.2136,-90.2793,451.6,69.3,11144222
BP,ioos:station:wmo:42369:3,2021-12-02T01:40:00Z,27.2136,-90.2794,451.7,69.3,11144222
BP,ioos:station:wmo:42369:3,2021-12-02T02:00:00Z,27.2136,-90.2794,452.3,69.2,11144222
BP,ioos:station:wmo:42369:3,2021-12-02T02:20:00Z,27.2136,-90.2795,452.0,69.2,11144222
BP,ioos:station:wmo:42369:3,2021-12-02T02:40:00Z,27.2135,-90.2794,451.5,69.2,11144222
BP,ioos:station:wmo:42369:3,2021-12-02T03:00:00Z,27.2135,-90.2793,451.5,69.2,11144222
BP,ioos:station:wmo:42369:3,2021-12-02T03:20:00Z,27.2135,-90.2789,450.6,69.2,11144222
BP,ioos:station:wmo:42369:3,2021-12-02T03:40:00Z,27.2134,-90.2787,451.3,69.2,11144222
BP,ioos:station:wmo:42369:3,2021-12-02T04:00:00Z,27.2133,-90.2785,451.5,69.2,11144222
BP,ioos:station:wmo:42369:3,2021-12-02T04:20:00Z,27.2134,-90.2785,452.0,69.3,11144222
BP,ioos:station:wmo:42369:3,2021-12-02T04:40:00Z,27.2133,-90.2785,452.9,69.3,11144222
BP,ioos:station:wmo:42369:3,2021-12-02T05:00:00Z,27.2133,-90.2785,452.0,69.3,11144222
BP,ioos:station:wmo:42369:3,2021-12-02T05:20:00Z,27.2134,-90.2785,452.1,69.3,11144222
BP,ioos:station:wmo:42369:3,2021-12-02T05:40:00Z,27.2134,-90.2785,452.3,69.3,11144222
BP,ioos:station:wmo:42369:3,2021-12-02T06:00:00Z,27.2134,-90.2783,453.3,69.3,11144222
BP,ioos:station:wmo:42369:3,2021-12-02T06:20:00Z,27.2133,-90.2782,453.4,69.4,11144222
BP,ioos:station:wmo:42369:3,2021-12-02T06:40:00Z,27.2133,-90.2781,453.9,69.4,11144222
BP,ioos:station:wmo:42369:3,2021-12-02T07:00:00Z,27.2133,-90.2780,452.9,69.4,11144222
BP,ioos:station:wmo:42369:3,2021-12-02T07:20:00Z,27.2132,-90.2778,452.8,69.3,11144222
BP,ioos:station:wmo:42369:3,2021-12-02T07:40:00Z,27.2132,-90.2777,453.5,69.4,11144222
BP,ioos:station:wmo:42369:3,2021-12-02T08:00:00Z,27.2132,-90.2777,454.9,69.4,11144222
BP,ioos:station:wmo:42369:3,2021-12-02T08:20:00Z,27.2132,-90.2776,454.7,69.4,11144222
BP,ioos:station:wmo:42369:3,2021-12-02T08:40:00Z,27.2132,-90.2776,455.3,69.4,11144222
BP,ioos:station:wmo:42369:3,2021-12-02T09:00:00Z,27.2133,-90.2776,455.5,69.4,11144222
BP,ioos:station:wmo:42369:3,2021-12-02T09:20:00Z,27.2133,-90.2776,455.3,69.4,11144222
BP,ioos:station:wmo:42369:3,2021-12-02T09:40:00Z,27.2133,-90.2776,456.3,69.4,11144222
BP,ioos:station:wmo:42369:3,2021-12-02T10:00:00Z,27.2134,-90.2777,455.8,69.4,11144222
BP,ioos:station:wmo:42369:3,2021-12-02T10:20:00Z,27.2136,-90.2779,457.7,69.4,11144222
BP,ioos:station:wmo:42369:3,2021-12-02T10:40:00Z,27.2136,-90.2779,457.8,69.3,11144222
BP,ioos:station:wmo:42369:3,2021-12-02T11:00:00Z,27.2135,-90.2778,457.0,69.4,11144222
BP,ioos:station:wmo:42369:3,2021-12-02T11:20:00Z,27.2134,-90.2777,456.6,69.5,11144222
BP,ioos:station:wmo:42369:3,2021-12-02T11:40:00Z,27.2134,-90.2777,456.7,69.5,11144222
BP,ioos:station:wmo:42369:3,2021-12-02T12:00:00Z,27.2134,-90.2777,456.1,69.5,11144222
BP,ioos:station:wmo:42369:3,2021-12-02T12:20:00Z,27.2134,-90.2777,456.3,69.5,11144222
BP,ioos:station:wmo:42369:3,2021-12-02T12:40:00Z,27.2134,-90.2777,456.5,69.4,11144222
BP,ioos:station:wmo:42369:3,2021-12-02T13:00:00Z,27.2135,-90.2778,456.2,69.4,11144222
BP,ioos:station:wmo:42369:3,2021-12-02T13:20:00Z,27.2135,-90.2779,455.3,69.4,11144222
BP,ioos:station:wmo:42369:3,2021-12-02T13:40:00Z,27.2135,-90.2780,455.0,69.4,11144222
BP,ioos:station:wmo:42369:3,2021-12-02T14:00:00Z,27.2136,-90.2781,456.0,69.5,11144222
BP,ioos:station:wmo:42369:3,2021-12-02T14:20:00Z,27.2136,-90.2783,455.8,69.5,11144222
BP,ioos:station:wmo:42369:3,2021-12-02T14:40:00Z,27.2137,-90.2785,455.3,69.5,11144222
BP,ioos:station:wmo:42369:3,2021-12-02T15:00:00Z,27.2137,-90.2786,455.6,69.5,11144222
BP,ioos:station:wmo:42369:3,2021-12-02T15:20:00Z,27.2138,-90.2790,454.4,69.5,11144222
BP,ioos:station:wmo:42369:3,2021-12-02T15:40:00Z,27.2138,-90.2790,454.3,69.5,11144222
BP,ioos:station:wmo:42369:3,2021-12-02T16:00:00Z,27.2139,-90.2793,454.3,69.5,11144222
BP,ioos:station:wmo:42369:3,2021-12-02T16:20:00Z,27.2139,-90.2794,455.0,69.5,11144222
BP,ioos:station:wmo:42369:3,2021-12-02T16:40:00Z,27.2139,-90.2795,453.8,69.5,11144222
BP,ioos:station:wmo:42369:3,2021-12-02T17:00:00Z,27.2139,-90.2796,453.8,69.5,11144222
BP,ioos:station:wmo:42369:3,2021-12-02T17:20:00Z,27.2138,-90.2794,454.2,69.5,11144222
BP,ioos:station:wmo:42369:3,2021-12-02T17:40:00Z,27.2138,-90.2792,454.7,69.5,11144222
BP,ioos:station:wmo:42369:3,2021-12-02T18:00:00Z,27.2138,-90.2791,456.4,69.5,11144222
BP,ioos:station:wmo:42369:3,2021-12-02T18:20:00Z,27.2139,-90.2791,455.5,69.5,11144222
BP,ioos:station:wmo:42369:3,2021-12-02T18:40:00Z,27.2139,-90.2791,456.4,69.6,11144222
BP,ioos:station:wmo:42369:3,2021-12-02T19:00:00Z,27.2139,-90.2791,456.6,69.6,11144222
BP,ioos:station:wmo:42369:3,2021-12-02T19:20:00Z,27.2139,-90.2791,456.1,69.5,11144222
BP,ioos:station:wmo:42369:3,2021-12-02T19:40:00Z,27.2139,-90.2791,457.9,69.5,11144222
BP,ioos:station:wmo:42369:3,2021-12-02T20:00:00Z,27.2139,-90.2790,456.9,69.5,11144222
BP,ioos:station:wmo:42369:3,2021-12-02T20:20:00Z,27.2139,-90.2790,457.6,69.5,11144222
BP,ioos:station:wmo:42369:3,2021-12-02T20:40:00Z,27.2140,-90.2789,457.9,69.5,11144222
BP,ioos:station:wmo:42369:3,2021-12-02T21:00:00Z,27.2139,-90.2789,456.8,69.6,11144222
BP,ioos:station:wmo:42369:3,2021-12-02T21:20:00Z,27.2139,-90.2788,457.3,69.6,11144222
BP,ioos:station:wmo:42369:3,2021-12-02T21:40:00Z,27.2139,-90.2788,456.3,69.6,11144222
BP,ioos:station:wmo:42369:3,2021-12-02T22:00:00Z,27.2139,-90.2789,457.4,69.6,11144222
BP,ioos:station:wmo:42369:3,2021-12-02T22:20:00Z,27.2139,-90.2789,457.7,69.5,11144222
BP,ioos:station:wmo:42369:3,2021-12-02T22:40:00Z,27.2139,-90.2790,457.2,69.6,11144222
BP,ioos:station:wmo:42369:3,2021-12-02T23:00:00Z,27.2139,-90.2790,457.4,69.6,11144222
BP,ioos:station:wmo:42369:3,2021-12-02T23:20:00Z,27.2139,-90.2790,457.7,69.7,11144222
BP,ioos:station:wmo:42369:3,2021-12-02T23:40:00Z,27.2139,-90.2790,457.0,69.7,11144222
BP,ioos:station:wmo:42369:3,2021-12-03T00:00:00Z,27.2139,-90.2790,456.1,69.6,11144222
BP,ioos:station:wmo:42369:3,2021-12-03T00:20:00Z,27.2139,-90.2791,456.7,69.7,11144222
BP,ioos:station:wmo:42369:3,2021-12-03T00:40:00Z,27.2139,-90.2791,455.9,69.7,11144222
BP,ioos:station:wmo:42369:3,2021-12-03T01:00:00Z,27.2139,-90.2792,456.9,69.7,11144222
BP,ioos:station:wmo:42369:3,2021-12-03T01:20:00Z,27.2139,-90.2792,457.0,69.7,11144222
BP,ioos:station:wmo:42369:3,2021-12-03T01:40:00Z,27.2139,-90.2792,456.5,69.7,11144222
BP,ioos:station:wmo:42369:3,2021-12-03T02:00:00Z,27.2139,-90.2792,456.8,69.6,11144222
BP,ioos:station:wmo:42369:3,2021-12-03T02:20:00Z,27.2140,-90.2793,456.8,69.6,11144222
BP,ioos:station:wmo:42369:3,2021-12-03T02:40:00Z,27.2140,-90.2794,457.6,69.7,11144222
BP,ioos:station:wmo:42369:3,2021-12-03T03:00:00Z,27.2141,-90.2794,457.2,69.7,11144222
BP,ioos:station:wmo:42369:3,2021-12-03T03:20:00Z,27.2141,-90.2794,457.2,69.7,11144222
BP,ioos:station:wmo:42369:3,2021-12-03T03:40:00Z,27.2142,-90.2794,458.0,69.7,11144222
BP,ioos:station:wmo:42369:3,2021-12-03T04:00:00Z,27.2142,-90.2794,458.0,69.7,11144222
BP,ioos:station:wmo:42369:3,2021-12-03T04:20:00Z,27.2142,-90.2794,459.2,69.7,11144222
BP,ioos:station:wmo:42369:3,2021-12-03T04:40:00Z,27.2142,-90.2794,458.7,69.7,11144222
BP,ioos:station:wmo:42369:3,2021-12-03T05:00:00Z,27.2142,-90.2794,458.7,69.7,11144222
BP,ioos:station:wmo:42369:3,2021-12-03T05:20:00Z,27.2142,-90.2796,459.3,69.7,11144222
BP,ioos:station:wmo:42369:3,2021-12-03T05:40:00Z,27.2143,-90.2796,461.0,69.7,11144222
BP,ioos:station:wmo:42369:3,2021-12-03T06:00:00Z,27.2143,-90.2796,460.6,69.8,11144222
BP,ioos:station:wmo:42369:3,2021-12-03T06:20:00Z,27.2143,-90.2796,460.6,69.8,11144222
BP,ioos:station:wmo:42369:3,2021-12-03T06:40:00Z,27.2142,-90.2794,460.7,69.8,11144222
BP,ioos:station:wmo:42369:3,2021-12-03T07:00:00Z,27.2142,-90.2793,460.2,69.7,11144222
BP,ioos:station:wmo:42369:3,2021-12-03T07:20:00Z,27.2142,-90.2793,460.7,69.8,11144222
BP,ioos:station:wmo:42369:3,2021-12-03T07:40:00Z,27.2143,-90.2792,461.3,69.8,11144222
BP,ioos:station:wmo:42369:3,2021-12-03T08:00:00Z,27.2143,-90.2792,461.9,69.8,11144222
BP,ioos:station:wmo:42369:3,2021-12-03T08:20:00Z,27.2143,-90.2792,462.1,69.8,11144222
BP,ioos:station:wmo:42369:3,2021-12-03T08:40:00Z,27.2143,-90.2792,462.8,69.8,11144222
BP,ioos:station:wmo:42369:3,2021-12-03T09:00:00Z,27.2143,-90.2793,463.1,69.8,11144222
BP,ioos:station:wmo:42369:3,2021-12-03T09:20:00Z,27.2143,-90.2790,463.7,69.8,11144222
BP,ioos:station:wmo:42369:3,2021-12-03T09:40:00Z,27.2142,-90.2787,462.8,69.8,11144222
BP,ioos:station:wmo:42369:3,2021-12-03T10:00:00Z,27.2142,-90.2787,463.2,69.8,11144222
BP,ioos:station:wmo:42369:3,2021-12-03T10:20:00Z,27.2141,-90.2785,462.9,69.8,11144222
BP,ioos:station:wmo:42369:3,2021-12-03T10:40:00Z,27.2141,-90.2785,462.2,69.8,11144222
BP,ioos:station:wmo:42369:3,2021-12-03T11:00:00Z,27.2141,-90.2784,463.0,69.8,11144222
BP,ioos:station:wmo:42369:3,2021-12-03T11:20:00Z,27.2141,-90.2784,464.5,69.8,11144222
BP,ioos:station:wmo:42369:3,2021-12-03T11:40:00Z,27.2140,-90.2784,462.3,69.8,11144222
BP,ioos:station:wmo:42369:3,2021-12-03T12:00:00Z,27.2140,-90.2784,463.7,69.7,11144222
BP,ioos:station:wmo:42369:3,2021-12-03T12:20:00Z,27.2140,-90.2785,463.1,69.7,11144222
BP,ioos:station:wmo:42369:3,2021-12-03T12:40:00Z,27.2141,-90.2785,463.1,69.7,11144222
BP,ioos:station:wmo:42369:3,2021-12-03T13:00:00Z,27.2141,-90.2786,462.7,69.8,11144222
BP,ioos:station:wmo:42369:3,2021-12-03T13:20:00Z,27.2141,-90.2786,462.6,69.8,11144222
BP,ioos:station:wmo:42369:3,2021-12-03T13:40:00Z,27.2140,-90.2786,460.8,69.8,11144222
BP,ioos:station:wmo:42369:3,2021-12-03T14:00:00Z,27.2140,-90.2786,461.2,69.8,11144222
BP,ioos:station:wmo:42369:3,2021-12-03T14:20:00Z,27.2140,-90.2787,460.1,69.8,11144222
BP,ioos:station:wmo:42369:3,2021-12-03T14:40:00Z,27.2140,-90.2787,461.4,69.9,11144222
BP,ioos:station:wmo:42369:3,2021-12-03T15:00:00Z,27.2140,-90.2787,460.9,69.9,11144222
BP,ioos:station:wmo:42369:3,2021-12-03T15:20:00Z,27.2140,-90.2787,461.1,69.9,11144222
BP,ioos:station:wmo:42369:3,2021-12-03T15:40:00Z,27.2140,-90.2787,460.6,69.8,11144222
BP,ioos:station:wmo:42369:3,2021-12-03T16:00:00Z,27.2140,-90.2787,461.2,69.8,11144222
BP,ioos:station:wmo:42369:3,2021-12-03T16:20:00Z,27.2141,-90.2788,461.8,69.8,11144222
BP,ioos:station:wmo:42369:3,2021-12-03T16:40:00Z,27.2141,-90.2788,462.9,69.8,11144222
BP,ioos:station:wmo:42369:3,2021-12-03T17:00:00Z,27.2141,-90.2788,462.7,69.8,11144222
BP,ioos:station:wmo:42369:3,2021-12-03T17:20:00Z,27.2142,-90.2789,462.5,69.8,11144222
BP,ioos:station:wmo:42369:3,2021-12-03T17:40:00Z,27.2142,-90.2789,462.8,69.8,11144222
BP,ioos:station:wmo:42369:3,2021-12-03T18:00:00Z,27.2143,-90.2790,463.9,69.8,11144222
BP,ioos:station:wmo:42369:3,2021-12-03T18:20:00Z,27.2143,-90.2790,463.2,69.8,11144222
BP,ioos:station:wmo:42369:3,2021-12-03T18:40:00Z,27.2143,-90.2790,463.0,69.8,11144222
BP,ioos:station:wmo:42369:3,2021-12-03T19:00:00Z,27.2143,-90.2790,464.0,69.8,11144222
BP,ioos:station:wmo:42369:3,2021-12-03T19:20:00Z,27.2144,-90.2790,463.3,69.9,11144222
BP,ioos:station:wmo:42369:3,2021-12-03T19:40:00Z,27.2144,-90.2791,465.0,69.8,11144222
BP,ioos:station:wmo:42369:3,2021-12-03T20:00:00Z,27.2144,-90.2791,465.3,69.9,11144222
BP,ioos:station:wmo:42369:3,2021-12-03T20:20:00Z,27.2144,-90.2791,466.1,69.9,11144222
BP,ioos:station:wmo:42369:3,2021-12-03T20:40:00Z,27.2145,-90.2792,466.6,69.8,11144222
BP,ioos:station:wmo:42369:3,2021-12-03T21:00:00Z,27.2146,-90.2793,468.0,69.8,11144222
BP,ioos:station:wmo:42369:3,2021-12-03T21:20:00Z,27.2146,-90.2794,467.5,69.8,11144222
BP,ioos:station:wmo:42369:3,2021-12-03T21:40:00Z,27.2146,-90.2795,467.2,69.8,11144222
BP,ioos:station:wmo:42369:3,2021-12-03T22:00:00Z,27.2146,-90.2796,468.3,69.8,11144222
BP,ioos:station:wmo:42369:3,2021-12-03T22:20:00Z,27.2146,-90.2796,468.0,69.8,11144222
BP,ioos:station:wmo:42369:3,2021-12-03T22:40:00Z,27.2145,-90.2794,467.6,69.9,11144222
BP,ioos:station:wmo:42369:3,2021-12-03T23:00:00Z,27.2143,-90.2788,466.0,69.9,11144222
BP,ioos:station:wmo:42369:3,2021-12-03T23:20:00Z,27.2141,-90.2784,464.5,69.8,11144222
BP,ioos:station:wmo:42369:3,2021-12-03T23:40:00Z,27.2140,-90.2783,462.8,69.8,11144222
BP,ioos:station:wmo:42369:3,2021-12-04T00:00:00Z,27.2140,-90.2782,464.0,69.8,11144222
BP,ioos:station:wmo:42369:3,2021-12-04T00:20:00Z,27.2140,-90.2782,463.4,69.8,11144222
BP,ioos:station:wmo:42369:3,2021-12-04T00:40:00Z,27.2140,-90.2783,463.5,69.8,11144222
BP,ioos:station:wmo:42369:3,2021-12-04T01:00:00Z,27.2140,-90.2783,464.3,69.8,11144222
BP,ioos:station:wmo:42369:3,2021-12-04T01:20:00Z,27.2140,-90.2784,463.6,69.9,11144222
BP,ioos:station:wmo:42369:3,2021-12-04T01:40:00Z,27.2141,-90.2785,463.7,69.9,11144222
BP,ioos:station:wmo:42369:3,2021-12-04T02:00:00Z,27.2141,-90.2785,462.7,69.9,11144222
BP,ioos:station:wmo:42369:3,2021-12-04T02:20:00Z,27.2141,-90.2785,463.3,69.9,11144222
BP,ioos:station:wmo:42369:3,2021-12-04T02:40:00Z,27.2141,-90.2785,462.8,69.9,11144222
BP,ioos:station:wmo:42369:3,2021-12-04T03:00:00Z,27.2141,-90.2785,463.5,67.3,11144222
BP,ioos:station:wmo:42369:3,2021-12-04T03:20:00Z,27.2141,-90.2786,462.4,70.0,11144222
BP,ioos:station:wmo:42369:3,2021-12-04T03:40:00Z,27.2142,-90.2787,463.1,69.9,11144222
BP,ioos:station:wmo:42369:3,2021-12-04T04:00:00Z,27.2142,-90.2787,462.6,69.9,11144222
BP,ioos:station:wmo:42369:3,2021-12-04T04:20:00Z,27.2142,-90.2788,462.5,69.9,11144222
BP,ioos:station:wmo:42369:3,2021-12-04T04:40:00Z,27.2142,-90.2789,461.5,69.9,11144222
BP,ioos:station:wmo:42369:3,2021-12-04T05:00:00Z,27.2142,-90.2790,462.0,69.8,11144222
BP,ioos:station:wmo:42369:3,2021-12-04T05:20:00Z,27.2142,-90.2790,461.4,69.8,11144222
BP,ioos:station:wmo:42369:3,2021-12-04T05:40:00Z,27.2142,-90.2789,461.9,69.8,11144222
BP,ioos:station:wmo:42369:3,2021-12-04T06:00:00Z,27.2142,-90.2789,462.4,69.8,11144222
BP,ioos:station:wmo:42369:3,2021-12-04T06:20:00Z,27.2142,-90.2788,463.0,69.8,11144222
BP,ioos:station:wmo:42369:3,2021-12-04T06:40:00Z,27.2142,-90.2788,462.8,69.8,11144222
BP,ioos:station:wmo:42369:3,2021-12-04T07:00:00Z,27.2142,-90.2787,463.6,69.8,11144222
BP,ioos:station:wmo:42369:3,2021-12-04T07:20:00Z,27.2142,-90.2786,463.6,69.8,11144222
BP,ioos:station:wmo:42369:3,2021-12-04T07:40:00Z,27.2142,-90.2786,465.7,69.8,11144222
BP,ioos:station:wmo:42369:3,2021-12-04T08:00:00Z,27.2142,-90.2785,465.1,69.8,11144222
BP,ioos:station:wmo:42369:3,2021-12-04T08:20:00Z,27.2142,-90.2785,466.2,69.9,11144222
BP,ioos:station:wmo:42369:3,2021-12-04T08:40:00Z,27.2142,-90.2785,466.8,69.8,11144222
BP,ioos:station:wmo:42369:3,2021-12-04T09:00:00Z,27.2142,-90.2784,466.3,69.8,11144222
BP,ioos:station:wmo:42369:3,2021-12-04T09:40:00Z,27.2142,-90.2782,467.3,69.9,11144222
BP,ioos:station:wmo:42369:3,2021-12-04T10:00:00Z,27.2142,-90.2782,468.8,69.9,11144222
BP,ioos:station:wmo:42369:3,2021-12-04T10:20:00Z,27.2142,-90.2782,470.0,69.9,11144222
BP,ioos:station:wmo:42369:3,2021-12-04T10:40:00Z,27.2142,-90.2782,469.5,69.9,11144222
BP,ioos:station:wmo:42369:3,2021-12-04T11:00:00Z,27.2142,-90.2782,470.4,69.9,11144222
BP,ioos:station:wmo:42369:3,2021-12-04T11:20:00Z,27.2142,-90.2782,470.0,69.9,11144222
BP,ioos:station:wmo:42369:3,2021-12-04T11:40:00Z,27.2142,-90.2782,469.0,69.9,11144222
BP,ioos:station:wmo:42369:3,2021-12-04T12:00:00Z,27.2142,-90.2782,470.2,69.9,11144222
BP,ioos:station:wmo:42369:3,2021-12-04T12:20:00Z,27.2142,-90.2782,468.4,69.9,11144222
BP,ioos:station:wmo:42369:3,2021-12-04T12:40:00Z,27.2142,-90.2782,468.5,69.9,11144222
BP,ioos:station:wmo:42369:3,2021-12-04T13:00:00Z,27.2142,-90.2782,468.0,69.9,11144222
BP,ioos:station:wmo:42369:3,2021-12-04T13:20:00Z,27.2142,-90.2782,467.7,69.8,11144222
BP,ioos:station:wmo:42369:3,2021-12-04T13:40:00Z,27.2142,-90.2782,467.7,64.6,11144222
BP,ioos:station:wmo:42369:3,2021-12-04T14:00:00Z,27.2142,-90.2783,466.8,51.3,11144222
BP,ioos:station:wmo:42369:3,2021-12-04T14:20:00Z,27.2143,-90.2784,467.0,54.0,11144222
BP,ioos:station:wmo:42369:3,2021-12-04T14:40:00Z,27.2142,-90.2785,467.2,69.9,11144222
BP,ioos:station:wmo:42369:3,2021-12-04T15:00:00Z,27.2142,-90.2785,466.3,61.9,11144222
BP,ioos:station:wmo:42369:3,2021-12-04T15:20:00Z,27.2142,-90.2786,465.6,56.6,11144222
BP,ioos:station:wmo:42369:3,2021-12-04T15:40:00Z,27.2142,-90.2786,464.0,56.6,11144222
BP,ioos:station:wmo:42369:3,2021-12-04T16:00:00Z,27.2141,-90.2787,463.4,54.0,11144222
BP,ioos:station:wmo:42369:3,2021-12-04T16:20:00Z,27.2141,-90.2787,462.4,48.6,11144222
BP,ioos:station:wmo:42369:3,2021-12-04T16:40:00Z,27.2141,-90.2787,461.5,46.0,11144222
BP,ioos:station:wmo:42369:3,2021-12-04T17:00:00Z,27.2140,-90.2788,460.4,30.0,11111222
BP,ioos:station:wmo:42369:3,2021-12-04T17:20:00Z,27.2140,-90.2788,460.5,19.4,11111222
BP,ioos:station:wmo:42369:3,2021-12-04T17:40:00Z,27.2140,-90.2788,459.4,14.0,11111222
BP,ioos:station:wmo:42369:3,2021-12-04T18:00:00Z,27.2139,-90.2788,457.2,19.4,11111222
BP,ioos:station:wmo:42369:3,2021-12-04T18:20:00Z,27.2138,-90.2786,457.9,14.1,11111222
BP,ioos:station:wmo:42369:3,2021-12-04T18:40:00Z,27.2137,-90.2785,456.9,14.1,11111222
BP,ioos:station:wmo:42369:3,2021-12-04T19:00:00Z,27.2136,-90.2783,455.7,16.8,11111222
BP,ioos:station:wmo:42369:3,2021-12-04T19:20:00Z,27.2135,-90.2781,457.6,14.2,11111222
BP,ioos:station:wmo:42369:3,2021-12-04T19:40:00Z,27.2134,-90.2779,456.8,14.2,11111222
BP,ioos:station:wmo:42369:3,2021-12-04T20:00:00Z,27.2134,-90.2777,457.1,14.2,11111222